www.pogodaiklimat.ru

Погода и климат >> Архив погоды >> Индия >> Пенджаб >> Амритсар


ПОГОДА в Амритсаре

  • Прогноз погоды в Амритсаре
  • Монитор погоды в Амритсаре

АРХИВ ПОГОДЫ в Амритсаре

Время (UTC), дата Ветер
(напр.,м/с)
 
Видим.   Явления Облачность Т
(С)
Тd
(С)
f
(%)
Тe
(С)
Тes
(С)
Комфортность P
(гПа)
Po
(гПа)
Тmin
(С)
Tmax
(С)
R
(мм)
R24
(мм)
S
(см)
18 9.06 З 2 4000 м мгла ясно +34.8 +18.7 39 +40 +40 очень
душно
996.3 970.8
21 9.06 С 3 4000 м мгла ясно +30.8 +16.9 43 +34 +34 очень
душно
995.8 969.9
00 10.06 штиль 0 4000 м мгла ясно +28.4 +16.9 50 +32 +32 душно 996.4 970.3
03 10.06 штиль 0 50 км мгла ?/? +35.0 +21.9 47 +44 +44 опасность
перегрева
996.9 971.4 +26.4 +44.4
06 10.06 нст 1 4000 м ясно +42.2 +16.4 22 +44 +68 опасность
перегрева
996.3 971.4
09 10.06 Ю 4 4000 м ясно +43.8 +15.3 19 +45 +58 опасность
перегрева
994.3 969.5
12 10.06 нст 1 4000 м 1/1 1200 м
[Sc]
+44.4 +14.8 18 +45 +49 опасность
перегрева
992.3 967.6 +45.2
15 10.06 штиль 0 4000 м ясно +38.6 +15.7 26 +40 +40 очень
душно
993.4 968.2
18 10.06 штиль 0 4000 м ясно +32.6 +18.1 42 +37 +37 очень
душно
994.1 968.4
21 10.06 СВ 3 2000 м мгла ясно +31.4 +20.3 52 +38 +38 очень
душно
993.7 967.9
00 11.06 С 5 2000 м пыль 8/4 1050 м
[Cb cap Ac trans]
+32.2 +22.3 56 +41 +41 опасность
перегрева
995.1 969.4
03 11.06 В 5 4000 м мгла 4/3 1200 м
[Sc diur, vesp Ac trans]
+36.2 +19.4 37 +41 +44 опасность
перегрева
995.3 969.9 +29.8 +45.2
06 11.06 Ю 5 4000 м мгла 8/4 1200 м
[Sc diur, vesp Ac trans]
+42.8 +17.3 23 +45 +50 опасность
перегрева
994.3 969.4
09 11.06 Ю 7 4000 м пыль 8/4 1200 м
[Sc diur, vesp Ac trans]
+43.4 +16.5 21 +45 +47 опасность
перегрева
993.2 968.4
12 11.06 Ю 5 4000 м пыль 4/3 1200 м
[Sc diur, vesp Ac trans]
+43.2 +14.2 18 +43 +45 опасность
перегрева
991.4 966.7 +44.8
18 11.06 В 6 4000 м пыль 5/3 1200 м
[Sc diur, vesp Ac trans]
+34.6 +17.6 37 +38 +38 очень
душно
994.3 968.8
21 11.06 нст 2 4000 м зарница 5/3 1050 м
[Cb cap Ac trans]
+33.6 +18.2 40 +38 +38 очень
душно
994.6 969.0
00 12.06 4000 м пыль н/о +27.8 +19.2 60 +33 +33 очень
душно
996.4 970.3
03 12.06 нст 5 4000 м {гроза, дождь} 8/4 1200 м
[Sc diur, vesp Ac trans]
+26.8 +19.4 64 +32 +34 очень
душно
999.5 973.2 +23.1 +44.8 4
06 12.06 В 7 4000 м ясно +34.6 +20.6 44 +41 +47 опасность
перегрева
998.2 972.6
09 12.06 В 7 4000 м пыль ясно +38.4 +18.4 31 +42 +47 опасность
перегрева
997.1 971.8
12 12.06 В 6 4000 м в посл. час гроза {дождь} 8/4 1050 м
[Cb cap Ac As]
+36.6 +19.1 36 +41 +42 опасность
перегрева
995.1 969.7 +39.5 0.0
15 12.06 нст 1 4000 м мгла 4/4 1200 м
[Sc diur, vesp]
+31.6 +19.8 50 +38 +38 очень
душно
997.5 971.7 0.2
18 12.06 штиль 0 4000 м мгла 3/3 1200 м
[Sc]
+29.8 +20.5 57 +37 +37 очень
душно
999.5 973.5 0.0
21 12.06 нст 1 4000 м мгла 3/3 1200 м
[Sc]
+29.0 +20.6 61 +36 +36 очень
душно
999.4 973.3 0.0
00 13.06 нст 1 4000 м мгла 1/1 1200 м
[Sc]
+25.8 +20.6 73 +32 +32 очень
душно
1000.4 974.0
03 13.06 В 3 4000 м мгла ясно +31.4 +17.3 43 +35 +42 очень
душно
1001.4 975.4 +25.0 +39.5 0.0
06 13.06 С 2 4000 м ясно +37.2 +16.3 29 +39 +60 опасность
солнечного
удара
1000.6 975.1
09 13.06 нст 1 4000 м ясно +40.2 +12.5 19 +40 +60 опасность
солнечного
удара
998.5 973.3
12 13.06 СЗ 4 4000 м мгла 1/1 1200 м
[Sc]
+40.8 +12.0 18 +40 +42 очень
жарко
996.7 971.6 +41.4
15 13.06 нст 1 4000 м мгла ясно +34.4 +14.3 30 +36 +36 душно 998.1 972.5
18 13.06 СЗ 2 4000 м мгла ясно +30.2 +16.5 44 +34 +34 очень
душно
998.9 972.9
21 13.06 штиль 0 4000 м мгла ясно +26.6 +16.6 54 +30 +30 душно 999.2 972.9
00 14.06 нст 1 4000 м мгла ясно +24.0 +16.5 63 +27 +27 жарко 999.3 972.8
03 14.06 нст 1 4000 м мгла ясно +33.4 +24.0 58 +45 +55 опасность
перегрева
999.7 974.0 +24.0 +41.4
06 14.06 З 3 4000 м ясно +40.2 +16.4 25 +42 +59 опасность
перегрева
998.8 973.6
09 14.06 З 7 4000 м ясно +42.0 +15.1 21 +43 +49 опасность
перегрева
996.7 971.7
12 14.06 З 6 4000 м ясно +41.6 +14.0 20 +42 +43 опасность
перегрева
995.0 970.0 +43.0
15 14.06 З 2 4000 м мгла ясно +34.6 +11.6 25 +34 +34 очень
жарко
996.0 970.5
18 14.06 нст 1 4000 м мгла ясно +29.4 +13.8 38 +31 +31 жарко 996.9 970.9
21 14.06 штиль 0 2000 м мгла ясно +27.2 +13.3 42 +29 +29 жарко 997.1 970.9
00 15.06 штиль 0 2000 м мгла ясно +25.6 +12.5 44 +27 +27 жарко 998.0 971.6
03 15.06 нст 1 2000 м мгла ясно +36.2 +14.8 28 +37 +47 очень
жарко
998.4 972.9 +24.7 +43.0
06 15.06 З 5 4000 м пыль ясно +39.6 +13.0 21 +40 +52 опасность
солнечного
удара
998.6 973.4
09 15.06 ЮЗ 3 2000 м гроза без осадков 9/5 1050 м
[Cb cap Ac trans]
+40.6 +12.7 19 +40 +44 очень
жарко
995.5 970.4
12 15.06 В 8 2000 м гроза, ливневой дождь 10/5 1050 м
[Cb cap Ac trans]
+29.6 +20.9 60 +37 +37 очень
душно
996.2 970.2 +42.3 2
15 15.06 З 9 2000 м зарница {гроза, дождь} 9/4 1050 м
[Cb cap Ac As]
+29.2 +17.9 51 +34 +34 очень
душно
999.1 973.0 3
18 15.06 З 2 2000 м гроза без осадков 10/5 1050 м
[Cb cap As op]
+28.2 +23.9 78 +39 +39 очень
душно
998.6 972.4 9
21 15.06 С 5 2000 м мгла {гроза} 9/4 1050 м
[Sc As op]
+26.8 +21.1 71 +34 +34 очень
душно
997.9 971.6 9
00 16.06 Ю 3 4000 м мгла {гроза} 10/4 1200 м
[Sc As op]
+26.0 +18.8 65 +31 +31 очень
душно
998.7 972.4 9
03 16.06 ЮЗ 4 4000 м мгла 5/3 1200 м
[Sc Ac trans]
+29.2 +18.6 53 +34 +38 очень
душно
1000.8 974.7 +23.8 +42.3 9
06 16.06 З 3 4000 м мгла 4/4 1000 м
[Sc]
+33.6 +17.0 37 +37 +47 очень
душно
1000.9 975.1
09 16.06 З 4 4000 м мгла ясно +36.0 +14.9 28 +37 +49 душно 998.9 973.4
12 16.06 З 4 4000 м мгла 3/3 1200 м
[Sc diur, vesp]
+36.6 +14.9 28 +38 +40 очень
душно
996.9 971.5 +37.5
15 16.06 нст 1 4000 м мгла 3/0
[Ac trans]
+33.0 +15.4 35 +35 +35 душно 997.8 972.1

 

Местоположение метеостанции Амритсар (Пенджаб, Индия): широта 31.63 долгота 74.87 высота над уровнем моря 234 м.

В архиве по умолчанию представлена погода в Амритсаре за последнюю неделю. Архивные данные за месяц целиком и за предыдущие месяцы, начиная с января 2011 года, Вы можете получить, выбрав интересующий диапазон дат из раскрывающегося списка и нажав кнопку "Ввод!".


*Определитесь, кто Вы:
робот инопланетянин человек

Внимание! Время в таблицах - всемирное. Для получения местного времени необходимо прибавить поправку, которая равна 5.5 ч.

Смотрите также архив погоды в соседних городах и на ближайших метеорологических станциях:

Погода в Лахор аэропорту (Пакистан) (46 км)
Погода в Лахоре (Пакистан) (52 км)
Погода в Наровале (Пакистан) (53 км)
Погода в Касуре (Пакистан) (70 км)
Погода в Гуджранвале (Пакистан) (91 км)
Погода в Сиялкоте (Пакистан) (102 км)
Погода в Джамму (Джамму и Кашмир, Индия) (116 км)
Погода в Гуджрате (Пакистан) (124 км)
Погода в Хафизабаде (Пакистан) (126 км)
Погода в Сиалкот аэропорту (Пакистан) (128 км)

Пояснения к столбцам:

Ветер - указаны скорость ветра в м/с - средняя за 10 мин, порывы в срок и между сроками (в фигурных скобках) и направление, откуда дует ветер: С - северный, СВ - северо-восточный, В - восточный, ЮВ - юго-восточный, Ю - южный, ЮЗ - юго-западный, З - западный, СЗ - северо-западный.
Видимость - горизонтальная дальность видимости в метрах или километрах. При видимости от 1 до 10 км при отсутствии осадков обычно наблюдается дымка, при ухудшении видимости до 1 км и менее - туман. В сухую погоду видимость может ухудшаться дымом, пылью или мглою.
Явления - указаны атмосферные явления, наблюдавшиеся в срок или в последний час перед сроком; фигурными скобками обозначены явления, наблюдавшиеся между сроками (за 1-3 часа до срока); квадратными скобками обозначены град или гололедные отложения с указанием их диаметра в мм.
Облачность - указаны через наклонную черту общая и нижняя облачность в баллах и высота нижней границы облаков в метрах; квадратными скобками обозначены формы облаков: Ci - перистые, Cs - перисто-слоистые, Cc - перисто-кучевые, Ac - высококучевые, As - высокослоистые, Sc - слоисто-кучевые, Ns - слоисто-дождевые, Cu - кучевые, Cb - кучево-дождевые. Подробнее классификацию облаков см. в Атласе облаков (PDF).
T - Температура воздуха - температура, измеренная на высоте 2 м над землей.
Td - Температура точки росы - температура, при понижении до которой содержащийся в воздухе водяной пар достигнет насыщения.
f - Относительная влажность воздуха - влажноcть воздуха, измеренная на высоте 2 м над землей.
Te - Эффективная температура - температура, которую ощущает одетый по сезону человек в тени. Характеристика душности погоды. При расчете учитывается влияние влажности воздуха и скорости ветра на теплоощущения человека.
Tes - Эффективная температура на солнце - температура, которую ощущает человек, с поправкой на солнечный нагрев. Характеристика знойности погоды. Зависит от высоты солнца над горизонтом, облачности и скорости ветра. Ночью, в пасмурную погоду, а также при ветре 12 м/с и более поправка равна нулю.
P - Атмосферное давление - приведенное к уровню моря атмосферное давление.
Po - Атмосферное давление - измеренное на уровне метеостанции атмосферное давление.
Tmin - Минимальная температура - минимум температуры воздуха на высоте 2 м над землей.
Tmax - Максимальная температура - максимум температуры воздуха на высоте 2 м над землей.
R - Количество осадков - Количество выпавших осадков за период времени, мм. При наведении курсора мыши на число - период времени, за который выпало указанное количество осадков.
R24 - Количество осадков - Количество выпавших осадков за 24 часа, мм.
S - Снежный покров - Высота снежного покрова, см. При наведении курсора мыши на число - состояние снежного покрова и степень покрытия местности в баллах.